• In Portugal
  • List of Countries
  • For 7 days
  • Water Temperature
  • Satellite Maps
  • Weather Map
  • Weather Widgets
  • user-avatar
    Login

    Hourly Weather Kemer

    Today, 22 January, Monday

    Time Temperature Precipitation Wind Pressure Humidity
    00:00 +11°C° 2.8 mm 9 mps 743 mmHg 92%
    01:00 +11°C° 2.8 mm 9 mps 743 mmHg 93%
    02:00 +11°C° 0 mm 10 mps 741 mmHg 95%
    03:00 +11°C° 4.9 mm 10 mps 740 mmHg 94%
    04:00 +11°C° 4.9 mm 9 mps 740 mmHg 93%
    05:00 +11°C° 4.9 mm 8 mps 740 mmHg 92%
    06:00 +11°C° 2.1 mm 8 mps 740 mmHg 92%
    07:00 +11°C° 2.1 mm 7 mps 739 mmHg 92%
    08:00 +11°C° 2.1 mm 6 mps 739 mmHg 91%
    09:00 +11°C° 0.7 mm 6 mps 739 mmHg 90%
    10:00 +13°C° 0.7 mm 6 mps 739 mmHg 89%
    11:00 +13°C° 0.7 mm 6 mps 739 mmHg 88%
    12:00 +13°C° 0.3 mm 6 mps 739 mmHg 87%
    13:00 +14°C° 0.3 mm 6 mps 739 mmHg 86%
    14:00 +14°C° 0.3 mm 6 mps 739 mmHg 85%
    15:00 +14°C° 1.1 mm 5 mps 738 mmHg 87%
    16:00 +13°C° 1.1 mm 5 mps 738 mmHg 89%
    17:00 +13°C° 1.1 mm 4 mps 738 mmHg 91%
    18:00 +12°C° 1.6 mm 4 mps 738 mmHg 92%
    19:00 +12°C° 1.6 mm 4 mps 738 mmHg 93%
    20:00 +12°C° 1.6 mm 3 mps 738 mmHg 94%
    21:00 +12°C° 0.6 mm 4 mps 738 mmHg 93%
    22:00 +12°C° 0.6 mm 4 mps 738 mmHg 93%
    23:00 +11°C° 0.6 mm 4 mps 738 mmHg 92%

    Tomorrow, 23 January, Tuesday

    Time Temperature Precipitation Wind Pressure Humidity
    00:00 +11°C° 0.7 mm 4 mps 738 mmHg 92%
    01:00 +11°C° 0.7 mm 4 mps 738 mmHg 91%
    02:00 +11°C° 0.7 mm 4 mps 739 mmHg 90%
    03:00 +11°C° 0.1 mm 4 mps 739 mmHg 88%
    04:00 +11°C° 0.1 mm 4 mps 740 mmHg 85%
    05:00 +11°C° 0.1 mm 3 mps 740 mmHg 83%
    06:00 +11°C° 0 mm 3 mps 741 mmHg 81%
    07:00 +11°C° 0 mm 3 mps 742 mmHg 80%
    08:00 +11°C° 0 mm 3 mps 742 mmHg 78%
    09:00 +12°C° 0 mm 3 mps 743 mmHg 75%
    10:00 +13°C° 0 mm 3 mps 744 mmHg 72%
    11:00 +14°C° 0 mm 3 mps 744 mmHg 70%
    12:00 +14°C° 0 mm 3 mps 744 mmHg 71%
    13:00 +15°C° 0 mm 2 mps 744 mmHg 72%
    14:00 +15°C° 0 mm 2 mps 745 mmHg 73%
    15:00 +13°C° 0.1 mm 3 mps 745 mmHg 74%
    16:00 +13°C° 0.1 mm 3 mps 745 mmHg 75%
    17:00 +12°C° 0.1 mm 3 mps 746 mmHg 76%
    18:00 +12°C° 0 mm 3 mps 746 mmHg 76%
    19:00 +11°C° 0 mm 4 mps 746 mmHg 76%
    20:00 +11°C° 0 mm 4 mps 747 mmHg 75%
    21:00 +10°C° 0 mm 4 mps 747 mmHg 75%
    22:00 +9°C° 0 mm 5 mps 748 mmHg 74%
    23:00 +9°C° 0 mm 5 mps 748 mmHg 73%

    Day after tomorrow, 24 January, Wednesday

    Time Temperature Precipitation Wind Pressure Humidity
    00:00 +9°C° 0.1 mm 5 mps 748 mmHg 73%
    01:00 +9°C° 0.1 mm 5 mps 748 mmHg 72%
    02:00 +8°C° 0.1 mm 5 mps 748 mmHg 72%
    03:00 +8°C° 0.1 mm 5 mps 748 mmHg 71%
    04:00 +8°C° 0.1 mm 5 mps 748 mmHg 71%
    05:00 +8°C° 0.1 mm 5 mps 748 mmHg 71%
    06:00 +8°C° 0.2 mm 5 mps 749 mmHg 71%
    07:00 +8°C° 0.2 mm 6 mps 749 mmHg 72%
    08:00 +8°C° 0.2 mm 6 mps 749 mmHg 73%
    09:00 +8°C° 0.4 mm 6 mps 750 mmHg 73%
    10:00 +8°C° 0.4 mm 6 mps 750 mmHg 74%
    11:00 +8°C° 0.4 mm 6 mps 750 mmHg 74%
    12:00 +8°C° 0.7 mm 6 mps 750 mmHg 74%
    13:00 +8°C° 0.7 mm 6 mps 749 mmHg 75%
    14:00 +8°C° 0.7 mm 6 mps 749 mmHg 75%
    15:00 +8°C° 0.6 mm 6 mps 749 mmHg 76%
    16:00 +8°C° 0.6 mm 6 mps 749 mmHg 76%
    17:00 +8°C° 0.6 mm 6 mps 749 mmHg 77%
    18:00 +7°C° 0.4 mm 6 mps 750 mmHg 77%
    19:00 +7°C° 0.4 mm 6 mps 750 mmHg 77%
    20:00 +7°C° 0.4 mm 5 mps 750 mmHg 76%
    21:00 +7°C° 0.3 mm 5 mps 750 mmHg 76%
    22:00 +5°C° 0.3 mm 6 mps 750 mmHg 76%
    23:00 +5°C° 0.3 mm 6 mps 751 mmHg 76%

    25 January, Thursday

    Time Temperature Precipitation Wind Pressure Humidity
    00:00 +5°C° 0.2 mm 6 mps 750 mmHg 76%
    01:00 +5°C° 0.2 mm 6 mps 750 mmHg 76%
    02:00 +5°C° 0.2 mm 6 mps 750 mmHg 76%
    03:00 +4°C° 0.1 mm 6 mps 750 mmHg 75%
    04:00 +4°C° 0.1 mm 6 mps 750 mmHg 74%
    05:00 +4°C° 0.1 mm 6 mps 750 mmHg 74%
    06:00 +4°C° 0 mm 6 mps 750 mmHg 73%
    07:00 +3°C° 0 mm 6 mps 750 mmHg 72%
    08:00 +3°C° 0 mm 6 mps 750 mmHg 71%
    09:00 +4°C° 0 mm 6 mps 750 mmHg 69%
    10:00 +5°C° 0 mm 6 mps 750 mmHg 67%
    11:00 +7°C° 0 mm 5 mps 750 mmHg 64%
    12:00 +7°C° 0 mm 5 mps 750 mmHg 63%
    13:00 +7°C° 0 mm 5 mps 749 mmHg 62%
    14:00 +8°C° 0 mm 5 mps 749 mmHg 61%
    15:00 +7°C° 0.1 mm 5 mps 748 mmHg 62%
    16:00 +6°C° 0.1 mm 5 mps 748 mmHg 62%
    17:00 +4°C° 0.1 mm 6 mps 748 mmHg 63%
    18:00 +4°C° 0.1 mm 6 mps 749 mmHg 63%
    19:00 +3°C° 0.1 mm 6 mps 749 mmHg 62%
    20:00 +2°C° 0.1 mm 7 mps 749 mmHg 61%
    21:00 +2°C° 0.1 mm 7 mps 749 mmHg 61%
    22:00 +2°C° 0.1 mm 7 mps 749 mmHg 61%
    23:00 0°C° 0.1 mm 7 mps 749 mmHg 62%

    26 January, Friday

    Time Temperature Precipitation Wind Pressure Humidity
    00:00 0°C° 0 mm 7 mps 749 mmHg 62%
    01:00 0°C° 0 mm 7 mps 749 mmHg 62%
    02:00 0°C° 0 mm 7 mps 749 mmHg 63%
    03:00 0°C° 0 mm 7 mps 749 mmHg 63%
    04:00 +1°C° 0 mm 6 mps 749 mmHg 64%
    05:00 -1°C° 0 mm 6 mps 748 mmHg 64%
    06:00 +1°C° 0 mm 6 mps 749 mmHg 65%
    07:00 +1°C° 0 mm 6 mps 749 mmHg 65%
    08:00 +1°C° 0 mm 5 mps 749 mmHg 66%
    09:00 +3°C° 0 mm 5 mps 750 mmHg 62%
    10:00 +5°C° 0 mm 5 mps 750 mmHg 59%
    11:00 +7°C° 0 mm 4 mps 750 mmHg 56%
    12:00 +7°C° 0 mm 4 mps 749 mmHg 56%
    13:00 +8°C° 0 mm 4 mps 749 mmHg 56%
    14:00 +9°C° 0 mm 3 mps 749 mmHg 55%
    15:00 +8°C° 0 mm 3 mps 749 mmHg 58%
    16:00 +8°C° 0 mm 3 mps 749 mmHg 60%
    17:00 +7°C° 0 mm 3 mps 749 mmHg 62%
    18:00 +5°C° 0 mm 3 mps 750 mmHg 63%
    19:00 +4°C° 0 mm 4 mps 751 mmHg 64%
    20:00 +4°C° 0 mm 4 mps 751 mmHg 64%
    21:00 +4°C° 0 mm 4 mps 752 mmHg 63%
    22:00 +4°C° 0 mm 4 mps 752 mmHg 63%
    23:00 +4°C° 0 mm 4 mps 752 mmHg 62%

    27 January, Saturday

    Time Temperature Precipitation Wind Pressure Humidity
    00:00 +4°C° 0 mm 4 mps 752 mmHg 61%
    01:00 +4°C° 0 mm 4 mps 752 mmHg 60%
    02:00 +4°C° 0 mm 4 mps 752 mmHg 59%
    03:00 +5°C° 0 mm 4 mps 753 mmHg 58%
    04:00 +5°C° 0 mm 3 mps 753 mmHg 57%
    05:00 +5°C° 0 mm 3 mps 753 mmHg 56%
    06:00 +5°C° 0 mm 3 mps 753 mmHg 56%
    07:00 +7°C° 0 mm 3 mps 753 mmHg 56%
    08:00 +7°C° 0 mm 2 mps 754 mmHg 56%
    09:00 +9°C° 0 mm 2 mps 754 mmHg 59%
    10:00 +12°C° 0 mm 2 mps 754 mmHg 62%
    11:00 +13°C° 0 mm 1 mps 754 mmHg 64%
    12:00 +14°C° 0 mm 1 mps 754 mmHg 64%
    13:00 +14°C° 0 mm 2 mps 754 mmHg 65%
    14:00 +15°C° 0 mm 2 mps 753 mmHg 65%
    15:00 +14°C° 0 mm 2 mps 754 mmHg 66%
    16:00 +13°C° 0 mm 2 mps 754 mmHg 67%
    17:00 +12°C° 0 mm 2 mps 754 mmHg 67%
    18:00 +10°C° 0 mm 2 mps 755 mmHg 66%
    19:00 +10°C° 0 mm 2 mps 755 mmHg 64%
    20:00 +9°C° 0 mm 2 mps 755 mmHg 62%
    21:00 +9°C° 0 mm 2 mps 755 mmHg 59%
    22:00 +9°C° 0 mm 2 mps 756 mmHg 57%
    23:00 +9°C° 0 mm 2 mps 756 mmHg 54%
    Show more